Location: Ergnies
(50.0854°N, 2.0375°E)
Time: 15:02:26
(UTC+00:00)

Cosmos 1943 Rocket - Pass Details

Date: 14 January 2026
Orbit: 811 x 842 km, 71.0° (Epoch: 18 February)

Event Time Altitude Azimuth Distance (km) Brightness Sun altitude
Rises 05:39:05 0° 197° (SSW) 3,324 5.2 -19.6°
Reaches altitude 10° 05:41:30 10° 194° (SSW) 2,395 4.5 -19.2°
Maximum altitude 05:46:55 65° 114° (ESE) 892 2.5 -18.4°
Drops below altitude 10° 05:52:21 10° 34° (NNE) 2,409 4.8 -17.5°
Sets 05:54:48 0° 31° (NNE) 3,347 5.6 -17.1°
